Hourly Data Report for May 21, 2022

LYNN LAKE
MANITOBA
Current Station Operator: NAVCAN

56°51'50.000" N
101°04'34.000" W
356.60 m
5061645
71078
YYL

Download Data

Hourly Data (May 2022)
Hourly Data Report for May 21, 2022
TIME
LST
Temp Definition
°C
Dew Point Definition
°C
Rel Hum Definition
%
Precip. Amount Definition
mm

Wind Dir Definition
10's deg

Wind Spd Definition
km/h
Visibility Definition
km
Stn Press Definition
kPa
Hmdx Definition


Wind Chill Definition


Weather Definition


00:00 1.1 -2.7 76 0.0 35 9 16.1 97.42     LegendNANA
01:00 0.7 -2.6 79 0.0 35 11 16.1 97.45     LegendNANA
02:00 -0.2 -2.9 82 0.0 34 13 16.1 97.48   -4 LegendNANA
03:00 -0.8 -4.0 79 0.0 35 15 16.1 97.52   -5 LegendNANA
04:00 -1.7 -3.3 89 0.0 32 13 16.1 97.51   -6 LegendNANA
05:00 -1.3 -3.2 87 0.0 32 15 16.1 97.52   -6 LegendNANA
06:00 0.0 -3.2 79 0.0 33 17 16.1 97.58   -5 LegendNANA
07:00 1.9 -5.0 60 0.0 34 21 16.1 97.62     LegendNANA
08:00 3.8 -7.0 45 0.0 34 18 16.1 97.63     LegendNANA
09:00 5.8 -5.4 44 0.0 31 18 16.1 97.61     LegendNANA
10:00 7.2 -3.5 46 0.0 32 26 16.1 97.59     LegendNANA
11:00 8.6 -2.8 45 0.0 29 18 16.1 97.58     LegendNANA
12:00 9.6 -2.0 44 0.0 28 26 16.1 97.57     LegendNANA
13:00 11.2 -1.0 43 0.0 33 13 16.1 97.54     LegendNANA
14:00 12.1 -2.9 35 0.0 32 22 16.1 97.55     LegendNANA
15:00 12.8 -3.8 31 0.0 30 24 16.1 97.52     LegendNANA
16:00 13.4 -4.1 29 0.0 31 22 16.1 97.50     LegendNANA
17:00 12.1 -3.7 33 0.0 31 18 16.1 97.51     LegendNANA
18:00 13.2 -3.2 32 0.0 31 17 16.1 97.48     LegendNANA
19:00 13.0 -3.4 32 0.0 32 11 16.1 97.46     LegendNANA
20:00 11.6 -3.1 36 0.0 27 8 16.1 97.44     LegendNANA
21:00 9.9 -2.6 41 0.0 27 8 16.1 97.45     LegendNANA
22:00 9.3 -2.6 43 0.0 28 8 16.1 97.43     LegendNANA
23:00 8.5 -2.2 47 0.0 26 9 16.1 97.43     LegendNANA

Notes on Data Quality.

Legend

  • E = Estimated
  • M = Missing
  • NA = Not Available*
  • [empty] = Indicates an unobserved value
Date modified: